DW0275 Weather Reports


Display with metric or nautical units.
time (UTC)temp
F
wind
direction
speed
MPH
gust
MPH
rain 1hr
in
rain 24hr
in
rain mn
in
humidity
%
barometer
mb
20260510203330 89 131 6.0 10.0 0.00 0.00 0.00 74 1015.7
20260510202839 89 131 7.0 14.0 0.00 0.00 0.00 73 1015.6
20260510202404 89 145 5.0 14.0 0.00 0.00 0.00 75 1015.6
20260510201843 89 160 6.0 14.0 0.00 0.00 0.00 74 1015.6
20260510201343 89 131 9.0 14.0 0.00 0.00 0.00 75 1015.5
20260510200844 89 115 9.0 15.0 0.00 0.00 0.00 75 1015.6
20260510200320 89 138 7.0 15.0 0.00 0.00 0.00 75 1015.6
20260510195832 89 136 6.0 14.0 0.00 0.00 0.00 75 1015.7
20260510195322 89 153 9.0 14.0 0.00 0.00 0.00 74 1015.8
20260510194820 89 129 7.0 14.0 0.00 0.00 0.00 74 1015.9
20260510194332 89 117 9.0 14.0 0.00 0.00 0.00 74 1015.9
20260510193837 89 126 8.0 13.0 0.00 0.00 0.00 74 1015.9
20260510193324 90 145 5.0 11.0 0.00 0.00 0.00 73 1016.1
20260510192834 89 176 6.0 11.0 0.00 0.00 0.00 73 1016.1
20260510192327 89 96 5.0 12.0 0.00 0.00 0.00 74 1016.1
20260510191832 89 134 6.0 12.0 0.00 0.00 0.00 74 1016.2
20260510191324 89 148 7.0 13.0 0.00 0.00 0.00 74 1016.3
20260510190837 89 114 7.0 13.0 0.00 0.00 0.00 74 1016.4
20260510190328 89 126 9.0 13.0 0.00 0.00 0.00 71 1016.3
20260510185822 89 116 8.0 12.0 0.00 0.00 0.00 74 1016.3
20260510185331 89 117 6.0 13.0 0.00 0.00 0.00 72 1016.4
20260510184847 89 113 9.0 13.0 0.00 0.00 0.00 73 1016.5
20260510184320 90 155 8.0 13.0 0.00 0.00 0.00 73 1016.5
20260510183854 90 129 9.0 13.0 0.00 0.00 0.00 72 1016.5
20260510183319 90 110 7.0 13.0 0.00 0.00 0.00 73 1016.6
20260510182828 90 116 7.0 13.0 0.00 0.00 0.00 73 1016.6
20260510182321 90 105 6.0 13.0 0.00 0.00 0.00 72 1016.7
20260510181832 90 124 3.0 12.0 0.00 0.00 0.00 72 1016.7
20260510181344 90 113 7.0 12.0 0.00 0.00 0.00 72 1016.8
20260510180838 89 135 6.0 11.0 0.00 0.00 0.00 73 1016.8
20260510180327 89 116 6.0 12.0 0.00 0.00 0.00 72 1016.8
20260510175841 91 127 6.0 12.0 0.00 0.00 0.00 72 1016.9
20260510175342 91 139 7.0 12.0 0.00 0.00 0.00 72 1016.9
20260510174845 92 135 2.0 5.0 0.00 0.00 0.00 71 1016.8
20260510174351 91 100 2.0 5.0 0.00 0.00 0.00 73 1016.9
20260510173823 90 154 3.0 8.0 0.00 0.00 0.00 74 1016.9
20260510173345 89 131 3.0 8.0 0.00 0.00 0.00 74 1016.9
20260510172858 89 147 4.0 7.0 0.00 0.00 0.00 74 1017.0
20260510172332 89 150 3.0 8.0 0.00 0.00 0.00 74 1017.1
20260510171830 90 124 5.0 8.0 0.00 0.00 0.00 72 1017.1
20260510171343 91 104 2.0 6.0 0.00 0.00 0.00 71 1017.1
20260510170856 91 136 2.0 8.0 0.00 0.00 0.00 72 1017.2
20260510170347 90 111 1.0 7.0 0.00 0.00 0.00 72 1017.2
20260510165819 89 163 1.0 4.0 0.00 0.00 0.00 75 1017.1
20260510165349 88 88 1.0 3.0 0.00 0.00 0.00 75 1017.3
20260510164822 89 37 2.0 4.0 0.00 0.00 0.00 74 1017.3
20260510164335 90 63 1.0 4.0 0.00 0.00 0.00 75 1017.4
20260510163848 89 122 2.0 3.0 0.00 0.00 0.00 73 1017.5
20260510163340 90 128 0.0 3.0 0.00 0.00 0.00 74 1017.6
20260510162827 90 129 2.0 3.0 0.00 0.00 0.00 72 1017.7
20260510162318 91 146 1.0 3.0 0.00 0.00 0.00 73 1017.7
20260510161822 90 290 0.0 3.0 0.00 0.00 0.00 75 1017.8
20260510161323 90 126 1.0 3.0 0.00 0.00 0.00 74 1017.8
20260510160833 89 155 0.0 3.0 0.00 0.00 0.00 75 1017.7
20260510160329 88 155 0.0 3.0 0.00 0.00 0.00 75 1017.8
20260510155823 88 160 0.0 3.0 0.00 0.00 0.00 74 1017.9
20260510155346 89 130 2.0 4.0 0.00 0.00 0.00 74 1017.9
20260510154819 89 146 0.0 2.0 0.00 0.00 0.00 74 1017.8
20260510154336 90 148 0.0 2.0 0.00 0.00 0.00 73 1017.7
20260510153824 90 15 0.0 2.0 0.00 0.00 0.00 73 1017.7
20260510153321 89 153 0.0 1.0 0.00 0.00 0.00 76 1017.7
20260510152905 89 142 0.0 3.0 0.00 0.00 0.00 75 1017.8
20260510152407 89 132 1.0 3.0 0.00 0.00 0.00 74 1017.7
20260510151849 90 131 1.0 5.0 0.00 0.00 0.00 73 1017.7
20260510151326 90 165 3.0 5.0 0.00 0.00 0.00 72 1017.6
20260510150823 91 186 2.0 7.0 0.00 0.00 0.00 71 1017.5
20260510150406 90 211 0.0 7.0 0.00 0.00 0.00 74 1017.5
20260510145859 89 214 0.0 5.0 0.00 0.00 0.00 75 1017.6
20260510145326 89 120 2.0 8.0 0.00 0.00 0.00 74 1017.5
20260510144824 89 125 2.0 8.0 0.00 0.00 0.00 75 1017.6
20260510144334 88 108 2.0 6.0 0.00 0.00 0.00 75 1017.4
20260510143842 88 155 1.0 6.0 0.00 0.00 0.00 76 1017.5
20260510143328 88 113 2.0 7.0 0.00 0.00 0.00 75 1017.5
20260510142837 89 116 3.0 7.0 0.00 0.00 0.00 76 1017.4
20260510142324 88 162 0.0 6.0 0.00 0.00 0.00 77 1017.3
20260510141834 88 125 2.0 6.0 0.00 0.00 0.00 77 1017.3
20260510141344 88 139 1.0 4.0 0.00 0.00 0.00 77 1017.3
20260510140839 88 175 1.0 4.0 0.00 0.00 0.00 77 1017.4
20260510140327 88 198 1.0 3.0 0.00 0.00 0.00 77 1017.4
20260510135838 88 120 1.0 2.0 0.00 0.00 0.00 77 1017.6
20260510135338 88 120 0.0 2.0 0.00 0.00 0.00 77 1017.5
20260510134824 88 149 0.0 2.0 0.00 0.00 0.00 78 1017.6
20260510134333 87 149 0.0 2.0 0.00 0.00 0.00 79 1017.5
20260510133841 86 131 0.0 4.0 0.00 0.00 0.00 79 1017.6
20260510133405 85 127 0.0 0.0 0.00 0.00 0.00 80 1017.6
20260510132833 85 127 0.0 0.0 0.00 0.00 0.00 80 1017.6
20260510132341 84 127 0.0 0.0 0.00 0.00 0.00 80 1017.6
20260510131844 84 116 0.0 1.0 0.00 0.00 0.00 80 1017.6
20260510131324 84 116 0.0 2.0 0.00 0.00 0.00 80 1017.7
20260510130843 85 82 0.0 3.0 0.00 0.00 0.00 79 1017.6
20260510130327 85 161 1.0 3.0 0.00 0.00 0.00 79 1017.6
20260510125835 85 127 0.0 2.0 0.00 0.00 0.00 80 1017.6
20260510125345 85 116 0.0 2.0 0.00 0.00 0.00 80 1017.6
20260510124841 85 112 0.0 1.0 0.00 0.00 0.00 81 1017.6
20260510124332 84 75 0.0 0.0 0.00 0.00 0.00 81 1017.5
20260510123823 84 75 0.0 0.0 0.00 0.00 0.00 81 1017.4
20260510123403 84 24 0.0 0.0 0.00 0.00 0.00 81 1017.3
20260510122823 83 4 0.0 0.0 0.00 0.00 0.00 81 1017.3
20260510122323 83 4 0.0 0.0 0.00 0.00 0.00 82 1017.2
20260510121832 83 4 0.0 0.0 0.00 0.00 0.00 81 1017.1
20260510121344 82 4 0.0 0.0 0.00 0.00 0.00 82 1017.0
20260510120823 82 4 0.0 0.0 0.00 0.00 0.00 82 1016.8
20260510120410 82 4 0.0 0.0 0.00 0.00 0.00 82 1016.9
20260510115844 82 4 0.0 0.0 0.00 0.00 0.00 82 1016.8
20260510115329 82 4 0.0 0.0 0.00 0.00 0.00 82 1016.7
20260510114822 82 4 0.0 0.0 0.00 0.00 0.00 83 1016.7
20260510114331 82 4 0.0 0.0 0.00 0.00 0.00 84 1016.7
20260510113843 81 4 0.0 0.0 0.00 0.00 0.00 86 1016.7
20260510113334 80 4 0.0 0.0 0.00 0.00 0.00 87 1016.6
20260510112824 79 4 0.0 0.0 0.00 0.00 0.00 88 1016.5
20260510112334 78 4 0.0 0.0 0.00 0.00 0.00 88 1016.4
20260510111846 78 4 0.0 0.0 0.00 0.00 0.00 88 1016.4
20260510111323 77 4 0.0 0.0 0.00 0.00 0.00 88 1016.3
20260510110835 77 4 0.0 0.0 0.00 0.00 0.00 88 1016.1
20260510110329 77 4 0.0 0.0 0.00 0.00 0.00 88 1016.1
20260510105840 77 4 0.0 0.0 0.00 0.00 0.00 88 1016.1
20260510105325 77 4 0.0 0.0 0.00 0.00 0.00 88 1016.0
20260510104826 77 4 0.0 0.0 0.00 0.00 0.00 88 1015.9
20260510104338 77 4 0.0 0.0 0.00 0.00 0.00 88 1015.8
20260510103844 77 4 0.0 0.0 0.00 0.00 0.00 88 1015.7
20260510103332 77 4 0.0 0.0 0.00 0.00 0.00 88 1015.6
20260510102827 77 4 0.0 0.0 0.00 0.00 0.00 88 1015.6
20260510102339 77 4 0.0 3.0 0.00 0.00 0.00 88 1015.6
20260510101844 77 4 0.0 3.0 0.00 0.00 0.00 88 1015.5
20260510101335 77 299 0.0 0.0 0.00 0.00 0.00 88 1015.4
20260510100820 78 299 0.0 0.0 0.00 0.00 0.00 88 1015.3
20260510100350 77 299 0.0 0.0 0.00 0.00 0.00 88 1015.3
20260510095849 77 299 0.0 0.0 0.00 0.00 0.00 88 1015.3
20260510095340 77 299 0.0 0.0 0.00 0.00 0.00 88 1015.3
20260510094907 77 299 0.0 0.0 0.00 0.00 0.00 88 1015.4
20260510094354 77 300 0.0 0.0 0.00 0.00 0.00 88 1015.2
20260510093824 77 300 0.0 0.0 0.00 0.00 0.00 88 1015.2
20260510093345 77 300 0.0 0.0 0.00 0.00 0.00 88 1015.1
20260510092845 77 300 0.0 0.0 0.00 0.00 0.00 88 1015.2
20260510092337 77 300 0.0 0.0 0.00 0.00 0.00 88 1015.1
20260510091839 77 300 0.0 0.0 0.00 0.00 0.00 88 1015.2
20260510091333 77 300 0.0 0.0 0.00 0.00 0.00 88 1015.0
20260510090908 77 300 0.0 0.0 0.00 0.00 0.00 88 1015.0
20260510090330 77 300 0.0 0.0 0.00 0.00 0.00 88 1014.9
20260510085823 77 300 0.0 0.0 0.00 0.00 0.00 88 1015.0
20260510085334 77 300 0.0 0.0 0.00 0.00 0.00 87 1015.0
20260510084826 77 300 0.0 0.0 0.00 0.00 0.00 87 1014.9
20260510084328 77 300 0.0 0.0 0.00 0.00 0.00 87 1015.1
20260510083838 77 300 0.0 0.0 0.00 0.00 0.00 87 1015.0
20260510083404 77 300 0.0 0.0 0.00 0.00 0.00 87 1015.0
20260510082822 77 300 0.0 0.0 0.00 0.00 0.00 87 1015.0
20260510082333 77 300 0.0 0.0 0.00 0.00 0.00 86 1015.1
20260510081854 77 300 0.0 0.0 0.00 0.00 0.00 86 1015.0
20260510081326 78 300 0.0 0.0 0.00 0.00 0.00 86 1015.1
20260510080840 78 300 0.0 0.0 0.00 0.00 0.00 86 1015.1
20260510080331 78 300 0.0 0.0 0.00 0.00 0.00 86 1015.0
20260510075826 78 300 0.0 0.0 0.00 0.00 0.00 86 1015.0
20260510075337 78 300 0.0 0.0 0.00 0.00 0.00 86 1015.0
20260510074831 78 300 0.0 0.0 0.00 0.00 0.00 86 1015.1
20260510074343 78 300 0.0 0.0 0.00 0.00 0.00 86 1015.0
20260510073831 78 300 0.0 0.0 0.00 0.00 0.00 86 1015.0
20260510073323 78 300 0.0 0.0 0.00 0.00 0.00 86 1015.1
20260510072835 78 300 0.0 0.0 0.00 0.00 0.00 86 1015.2
20260510072329 78 300 0.0 0.0 0.00 0.00 0.00 86 1015.2
20260510071832 78 300 0.0 0.0 0.00 0.00 0.00 85 1015.3
20260510071341 78 300 0.0 0.0 0.00 0.00 0.00 85 1015.2
20260510070844 78 300 0.0 0.0 0.00 0.00 0.00 85 1015.2
20260510070345 78 300 0.0 0.0 0.00 0.00 0.00 85 1015.2
20260510065838 78 300 0.0 0.0 0.00 0.00 0.00 85 1015.0
20260510065330 78 300 0.0 0.0 0.00 0.00 0.00 85 1015.2
20260510064839 78 300 0.0 0.0 0.00 0.00 0.00 85 1015.3
20260510064331 78 300 0.0 0.0 0.00 0.00 0.00 84 1015.3
20260510063906 78 300 0.0 0.0 0.00 0.00 0.00 84 1015.3
20260510063356 79 300 0.0 0.0 0.00 0.00 0.00 84 1015.3
20260510062834 79 300 0.0 0.0 0.00 0.00 0.00 84 1015.3
20260510062352 79 300 0.0 0.0 0.00 0.00 0.00 84 1015.4
20260510061820 79 300 0.0 0.0 0.00 0.00 0.00 83 1015.4
20260510061331 79 300 0.0 0.0 0.00 0.00 0.00 83 1015.6
20260510060822 79 300 0.0 0.0 0.00 0.00 0.00 83 1015.6
20260510060330 80 300 0.0 1.0 0.00 0.00 0.00 83 1015.6
20260510055823 80 300 0.0 1.0 0.00 0.00 0.00 83 1015.6
20260510055345 80 300 0.0 1.0 0.00 0.00 0.00 83 1015.6
20260510054837 80 152 0.0 0.0 0.00 0.00 0.00 83 1015.6
20260510054346 80 152 0.0 0.0 0.00 0.00 0.00 83 1015.7
20260510053856 80 152 0.0 0.0 0.00 0.00 0.00 83 1015.7
20260510053328 80 153 0.0 0.0 0.00 0.00 0.00 83 1015.6
20260510052822 80 152 0.0 0.0 0.00 0.00 0.00 83 1015.7
20260510052323 80 152 0.0 0.0 0.00 0.00 0.00 83 1015.8
20260510051833 80 152 0.0 0.0 0.00 0.00 0.00 83 1016.0
20260510051327 80 152 0.0 0.0 0.00 0.00 0.00 83 1015.9
20260510050835 80 153 0.0 0.0 0.00 0.00 0.00 83 1016.0
20260510050330 80 152 0.0 0.0 0.00 0.00 0.00 82 1016.0
20260510045822 80 152 0.0 0.0 0.00 0.00 0.00 82 1016.1
20260510045344 80 152 0.0 0.0 0.00 0.00 0.00 82 1016.0
20260510044824 80 153 0.0 0.0 0.00 0.00 0.00 81 1016.2
20260510044333 80 152 0.0 0.0 0.00 0.00 0.00 81 1016.1
20260510043824 81 152 0.0 0.0 0.00 0.00 0.00 81 1016.2
20260510043344 81 152 0.0 0.0 0.00 0.00 0.00 80 1016.2
20260510042900 81 152 0.0 0.0 0.00 0.00 0.00 80 1016.3
20260510042407 81 152 0.0 0.0 0.00 0.00 0.00 80 1016.2
20260510041846 81 152 0.0 0.0 0.00 0.00 0.00 79 1016.3
20260510041326 81 152 0.0 0.0 0.00 0.00 0.00 79 1016.3
20260510040836 81 152 0.0 0.0 0.00 0.00 0.00 79 1016.2
20260510040347 81 152 0.0 0.0 0.00 0.00 0.00 79 1016.2
20260510035831 81 152 0.0 0.0 0.00 0.00 0.00 78 1016.2
20260510035334 82 152 0.0 0.0 0.00 0.00 0.00 78 1016.2
20260510034846 82 150 0.0 1.0 0.00 0.00 0.00 78 1016.2
20260510034340 82 142 0.0 1.0 0.00 0.00 0.00 78 1016.0
20260510033833 83 142 0.0 1.0 0.00 0.00 0.00 77 1016.1
20260510033324 83 142 0.0 0.0 0.00 0.00 0.00 77 1016.1
20260510032835 83 142 0.0 1.0 0.00 0.00 0.00 77 1016.0
20260510032326 83 142 0.0 1.0 0.00 0.00 0.00 77 1015.9
20260510031857 83 152 0.0 0.0 0.00 0.00 0.00 77 1015.8
20260510031331 83 152 0.0 0.0 0.00 0.00 0.00 77 1015.8
20260510030823 83 151 0.0 2.0 0.00 0.00 0.00 77 1015.7
20260510030332 83 151 0.0 2.0 0.00 0.00 0.00 77 1015.7
20260510025826 83 141 0.0 0.0 0.00 0.00 0.00 77 1015.6
20260510025329 83 158 0.0 2.0 0.00 0.00 0.00 77 1015.6
20260510024820 83 161 1.0 3.0 0.00 0.00 0.00 77 1015.5
20260510024335 83 148 0.0 3.0 0.00 0.00 0.00 77 1015.5
20260510023821 83 148 1.0 3.0 0.00 0.00 0.00 77 1015.5
20260510022822 83 209 0.0 0.0 0.00 0.00 0.00 77 1015.4
20260510022343 83 147 0.0 1.0 0.00 0.00 0.00 77 1015.4
20260510021844 83 174 0.0 4.0 0.00 0.00 0.00 77 1015.4
20260510021326 83 169 1.0 4.0 0.00 0.00 0.00 77 1015.2
20260510020835 83 165 0.0 3.0 0.00 0.00 0.00 77 1015.0
20260510020347 83 105 1.0 5.0 0.00 0.00 0.00 77 1014.8
20260510015820 84 162 1.0 5.0 0.00 0.00 0.00 77 1014.7
20260510015335 84 146 2.0 6.0 0.00 0.00 0.00 77 1014.6
20260510014830 84 147 2.0 6.0 0.00 0.00 0.00 77 1014.6
20260510014357 84 162 2.0 5.0 0.00 0.00 0.00 77 1014.5
20260510013857 84 170 3.0 6.0 0.00 0.00 0.00 77 1014.5
20260510013404 84 148 2.0 6.0 0.00 0.00 0.00 77 1014.5
20260510012836 84 110 2.0 5.0 0.00 0.00 0.00 77 1014.5
20260510012336 84 178 1.0 6.0 0.00 0.00 0.00 77 1014.5
20260510011826 84 188 3.0 6.0 0.00 0.00 0.00 77 1014.4
20260510011321 84 139 3.0 6.0 0.00 0.00 0.00 77 1014.2
20260510010835 84 113 2.0 7.0 0.00 0.00 0.00 77 1014.2
20260510010328 84 136 2.0 7.0 0.00 0.00 0.00 77 1014.1
20260510005822 84 117 3.0 6.0 0.00 0.00 0.00 77 1014.0
20260510005333 84 189 2.0 6.0 0.00 0.00 0.00 77 1014.0
20260510004855 84 152 2.0 6.0 0.00 0.00 0.00 77 1013.8
20260510004330 84 176 2.0 6.0 0.00 0.00 0.00 77 1013.8
20260510003844 84 141 2.0 7.0 0.00 0.00 0.00 76 1013.7
20260510003333 85 120 3.0 7.0 0.00 0.00 0.00 76 1013.7
20260510002826 85 172 2.0 8.0 0.00 0.00 0.00 76 1013.5
20260510002320 85 116 4.0 7.0 0.00 0.00 0.00 76 1013.4
20260510001846 85 153 3.0 7.0 0.00 0.00 0.00 75 1013.3
20260510001338 85 133 2.0 10.0 0.00 0.00 0.00 75 1013.2
20260510000850 85 148 4.0 9.0 0.00 0.00 0.00 75 1013.1
20260510000343 85 174 5.0 9.0 0.00 0.00 0.00 75 1013.0
20260509235835 85 156 3.0 8.0 0.00 0.00 0.00 75 1012.9
20260509235328 86 149 3.0 9.0 0.00 0.00 0.00 74 1012.9
20260509234821 86 132 5.0 11.0 0.00 0.00 0.00 73 1012.9
20260509234332 86 142 4.0 8.0 0.00 0.00 0.00 73 1012.8
20260509233827 86 138 4.0 7.0 0.00 0.00 0.00 73 1012.8
20260509233341 86 155 2.0 9.0 0.00 0.00 0.00 74 1012.8
20260509232835 86 154 4.0 9.0 0.00 0.00 0.00 73 1012.9
20260509232328 86 115 6.0 10.0 0.00 0.00 0.00 73 1012.8
20260509231327 87 148 4.0 9.0 0.00 0.00 0.00 72 1012.6
20260509230821 87 132 5.0 10.0 0.00 0.00 0.00 71 1012.6
20260509230335 87 122 5.0 11.0 0.00 0.00 0.00 71 1012.5
20260509225847 87 136 6.0 11.0 0.00 0.00 0.00 71 1012.5
20260509225355 87 111 6.0 9.0 0.00 0.00 0.00 72 1012.5
20260509224827 88 120 6.0 10.0 0.00 0.00 0.00 71 1012.5
20260509224349 88 149 6.0 10.0 0.00 0.00 0.00 69 1012.6
20260509223841 88 153 4.0 8.0 0.00 0.00 0.00 69 1012.6
20260509223336 88 142 5.0 8.0 0.00 0.00 0.00 69 1012.7
20260509222830 88 158 4.0 10.0 0.00 0.00 0.00 70 1012.6
20260509222339 88 145 6.0 10.0 0.00 0.00 0.00 69 1012.7
20260509221820 88 122 6.0 10.0 0.00 0.00 0.00 70 1012.5
20260509221323 89 117 5.0 10.0 0.00 0.00 0.00 69 1012.5
20260509220846 89 153 6.0 10.0 0.00 0.00 0.00 68 1012.5
20260509220339 89 140 3.0 10.0 0.00 0.00 0.00 68 1012.4
20260509215830 89 115 6.0 11.0 0.00 0.00 0.00 69 1012.3
20260509215322 89 154 7.0 11.0 0.00 0.00 0.00 69 1012.4
20260509214845 89 124 7.0 12.0 0.00 0.00 0.00 68 1012.3
20260509214330 89 124 4.0 12.0 0.00 0.00 0.00 68 1012.3
20260509213824 89 134 7.0 16.0 0.00 0.00 0.00 68 1012.4
20260509213335 89 132 7.0 13.0 0.00 0.00 0.00 70 1012.5
20260509212838 89 127 9.0 14.0 0.00 0.00 0.00 69 1012.3
20260509212332 89 105 8.0 13.0 0.00 0.00 0.00 69 1012.3
20260509211823 89 142 7.0 12.0 0.00 0.00 0.00 71 1012.4
20260509211327 89 146 5.0 11.0 0.00 0.00 0.00 71 1012.3
20260509210821 89 120 6.0 12.0 0.00 0.00 0.00 71 1012.4
20260509210332 90 142 5.0 12.0 0.00 0.00 0.00 70 1012.4
20260509205836 89 162 7.0 14.0 0.00 0.00 0.00 71 1012.5
20260509205347 89 143 8.0 15.0 0.00 0.00 0.00 71 1012.3
20260509204831 89 127 10.0 15.0 0.00 0.00 0.00 71 1012.3
20260509204321 90 111 9.0 14.0 0.00 0.00 0.00 70 1012.3
20260509203828 90 152 10.0 14.0 0.00 0.00 0.00 69 1012.4